contact:dominique.lefevre@mio.osupytheas.fr, maurice.libes@osupytheas.fr, didier.mallarino@osupytheas.fr
Project:EMSO http://www.emso-fr.org/EMSO-France
Depth: 2436.0 m
Title:EMSO Ligure Ouest : Data MII capteur MICROCAT
DateTime_Computer,Latitude,Longitude,Temperature,Conductivity,Pressure,DateTime_Instrument
DateTime_Computer,Latitude,Longitude,degC,S m-1,dbar,DateTime_Instrument
2019-06-30T00:01:18Z,42.805,6.029,13.2971,4.59986,2469.806,2019-6-30T02:01:35Z
2019-06-30T00:04:21Z,42.805,6.029,13.2968,4.59984,2469.821,2019-6-30T02:04:38Z
2019-06-30T00:07:24Z,42.805,6.029,13.2969,4.60011,2469.83,2019-6-30T02:07:41Z
2019-06-30T00:10:27Z,42.805,6.029,13.2960,4.59981,2469.806,2019-6-30T02:10:44Z
2019-06-30T00:13:30Z,42.805,6.029,13.2967,4.59989,2469.821,2019-6-30T02:13:47Z
2019-06-30T00:16:33Z,42.805,6.029,13.2966,4.59970,2469.821,2019-6-30T02:16:50Z
2019-06-30T00:19:35Z,42.805,6.029,13.2971,4.59991,2469.806,2019-6-30T02:19:53Z
2019-06-30T00:22:38Z,42.805,6.029,13.2965,4.59981,2469.844,2019-6-30T02:22:56Z
2019-06-30T00:25:41Z,42.805,6.029,13.2963,4.59981,2469.867,2019-6-30T02:25:59Z
2019-06-30T00:28:44Z,42.805,6.029,13.2965,4.59988,2469.821,2019-6-30T02:29:02Z
2019-06-30T00:31:47Z,42.805,6.029,13.2963,4.60003,2469.83,2019-6-30T02:32:04Z
2019-06-30T00:34:50Z,42.805,6.029,13.2971,4.59991,2469.867,2019-6-30T02:35:07Z
2019-06-30T00:37:53Z,42.805,6.029,13.2965,4.59985,2469.83,2019-6-30T02:38:10Z
2019-06-30T00:40:56Z,42.805,6.029,13.2967,4.59985,2469.853,2019-6-30T02:41:13Z
2019-06-30T00:43:59Z,42.805,6.029,13.2971,4.59979,2469.844,2019-6-30T02:44:16Z
2019-06-30T00:47:02Z,42.805,6.029,13.2971,4.59993,2469.914,2019-6-30T02:47:19Z
2019-06-30T00:50:05Z,42.805,6.029,13.2962,4.59989,2469.821,2019-6-30T02:50:22Z
2019-06-30T00:53:08Z,42.805,6.029,13.2976,4.59988,2469.839,2019-6-30T02:53:25Z
2019-06-30T00:56:11Z,42.805,6.029,13.2966,4.59980,2469.867,2019-6-30T02:56:28Z
2019-06-30T00:59:14Z,42.805,6.029,13.2964,4.59987,2469.83,2019-6-30T02:59:31Z
2019-06-30T01:02:17Z,42.805,6.029,13.2964,4.60006,2469.844,2019-6-30T03:02:34Z
2019-06-30T01:05:20Z,42.805,6.029,13.2977,4.59993,2469.844,2019-6-30T03:05:37Z
2019-06-30T01:08:23Z,42.805,6.029,13.2971,4.60003,2469.867,2019-6-30T03:08:40Z
2019-06-30T01:11:26Z,42.805,6.029,13.2971,4.59984,2469.83,2019-6-30T03:11:43Z
2019-06-30T01:14:29Z,42.805,6.029,13.2967,4.59999,2469.867,2019-6-30T03:14:46Z
2019-06-30T01:17:32Z,42.805,6.029,13.2971,4.59986,2469.89,2019-6-30T03:17:49Z
2019-06-30T01:20:34Z,42.805,6.029,13.2974,4.60011,2469.89,2019-6-30T03:20:52Z
2019-06-30T01:23:37Z,42.805,6.029,13.2979,4.59991,2469.89,2019-6-30T03:23:55Z
2019-06-30T01:26:40Z,42.805,6.029,13.2974,4.60014,2469.844,2019-6-30T03:26:58Z
2019-06-30T01:29:43Z,42.805,6.029,13.2976,4.60013,2469.844,2019-6-30T03:30:01Z
2019-06-30T01:32:46Z,42.805,6.029,13.2982,4.59998,2469.83,2019-6-30T03:33:03Z
2019-06-30T01:35:49Z,42.805,6.029,13.2979,4.59991,2469.83,2019-6-30T03:36:06Z
2019-06-30T01:38:52Z,42.805,6.029,13.2982,4.60003,2469.853,2019-6-30T03:39:09Z
2019-06-30T01:41:55Z,42.805,6.029,13.2974,4.60005,2469.876,2019-6-30T03:42:12Z
2019-06-30T01:44:58Z,42.805,6.029,13.2975,4.60011,2469.83,2019-6-30T03:45:15Z
2019-06-30T01:48:01Z,42.805,6.029,13.2965,4.60003,2469.853,2019-6-30T03:48:18Z
2019-06-30T01:51:04Z,42.805,6.029,13.2976,4.59991,2469.844,2019-6-30T03:51:21Z
2019-06-30T01:54:07Z,42.805,6.029,13.2971,4.60018,2469.876,2019-6-30T03:54:24Z
2019-06-30T01:57:10Z,42.805,6.029,13.2969,4.59978,2469.867,2019-6-30T03:57:27Z
2019-06-30T02:00:13Z,42.805,6.029,13.2967,4.59985,2469.89,2019-6-30T04:00:30Z
2019-06-30T02:03:16Z,42.805,6.029,13.2962,4.59994,2469.83,2019-6-30T04:03:33Z
2019-06-30T02:06:19Z,42.805,6.029,13.2967,4.59997,2469.89,2019-6-30T04:06:36Z
2019-06-30T02:09:22Z,42.805,6.029,13.2968,4.59972,2469.89,2019-6-30T04:09:39Z
2019-06-30T02:12:25Z,42.805,6.029,13.2976,4.59985,2469.876,2019-6-30T04:12:42Z
2019-06-30T02:15:28Z,42.805,6.029,13.2971,4.59988,2469.914,2019-6-30T04:15:45Z
2019-06-30T02:18:30Z,42.805,6.029,13.2975,4.60028,2469.89,2019-6-30T04:18:48Z
2019-06-30T02:21:33Z,42.805,6.029,13.2964,4.59998,2469.9,2019-6-30T04:21:51Z
2019-06-30T02:24:36Z,42.805,6.029,13.2976,4.59998,2469.923,2019-6-30T04:24:54Z
2019-06-30T02:27:39Z,42.805,6.029,13.2970,4.60025,2469.89,2019-6-30T04:27:57Z
2019-06-30T02:30:42Z,42.805,6.029,13.2989,4.60027,2469.853,2019-6-30T04:30:59Z
2019-06-30T02:33:45Z,42.805,6.029,13.2964,4.60001,2469.876,2019-6-30T04:34:02Z
2019-06-30T02:36:48Z,42.805,6.029,13.2975,4.59985,2469.914,2019-6-30T04:37:05Z
2019-06-30T02:39:51Z,42.805,6.029,13.2965,4.59997,2469.9,2019-6-30T04:40:08Z
2019-06-30T02:42:54Z,42.805,6.029,13.2969,4.59992,2469.89,2019-6-30T04:43:11Z
2019-06-30T02:45:57Z,42.805,6.029,13.2963,4.59983,2469.914,2019-6-30T04:46:14Z
2019-06-30T02:49:00Z,42.805,6.029,13.2967,4.60003,2469.9,2019-6-30T04:49:17Z
2019-06-30T02:52:03Z,42.805,6.029,13.2972,4.59979,2469.876,2019-6-30T04:52:20Z
2019-06-30T02:55:06Z,42.805,6.029,13.2974,4.59997,2469.876,2019-6-30T04:55:23Z
2019-06-30T02:58:09Z,42.805,6.029,13.2971,4.59991,2469.9,2019-6-30T04:58:26Z
2019-06-30T03:01:12Z,42.805,6.029,13.2967,4.59996,2469.914,2019-6-30T05:01:29Z
2019-06-30T03:04:15Z,42.805,6.029,13.2969,4.59976,2469.914,2019-6-30T05:04:32Z
2019-06-30T03:07:18Z,42.805,6.029,13.2969,4.59985,2469.923,2019-6-30T05:07:35Z
2019-06-30T03:10:21Z,42.805,6.029,13.2979,4.60002,2469.89,2019-6-30T05:10:38Z
2019-06-30T03:13:24Z,42.805,6.029,13.2972,4.60033,2469.914,2019-6-30T05:13:41Z
2019-06-30T03:16:26Z,42.805,6.029,13.2971,4.60007,2469.9,2019-6-30T05:16:44Z
2019-06-30T03:19:29Z,42.805,6.029,13.2967,4.59987,2469.937,2019-6-30T05:19:47Z
2019-06-30T04:03:06Z,42.805,6.029,13.2961,4.59961,2469.923,2019-6-30T06:03:24Z
2019-06-30T04:06:09Z,42.805,6.029,13.2958,4.59966,2469.923,2019-6-30T06:06:26Z
2019-06-30T04:09:12Z,42.805,6.029,13.2967,4.59969,2469.923,2019-6-30T06:09:29Z
2019-06-30T04:12:15Z,42.805,6.029,13.2963,4.59981,2469.947,2019-6-30T06:12:32Z
2019-06-30T04:15:18Z,42.805,6.029,13.2966,4.59994,2469.923,2019-6-30T06:15:35Z
2019-06-30T04:18:21Z,42.805,6.029,13.2979,4.59986,2469.923,2019-6-30T06:18:38Z
2019-06-30T04:21:24Z,42.805,6.029,13.2958,4.59991,2469.923,2019-6-30T06:21:41Z
2019-06-30T04:24:27Z,42.805,6.029,13.2962,4.59985,2469.993,2019-6-30T06:24:44Z
2019-06-30T04:27:30Z,42.805,6.029,13.2964,4.59974,2469.923,2019-6-30T06:27:47Z
2019-06-30T04:30:33Z,42.805,6.029,13.2962,4.59979,2469.96,2019-6-30T06:30:50Z
2019-06-30T04:33:36Z,42.805,6.029,13.2964,4.59988,2469.923,2019-6-30T06:33:53Z
2019-06-30T04:36:39Z,42.805,6.029,13.2958,4.59981,2469.96,2019-6-30T06:36:56Z
2019-06-30T04:39:42Z,42.805,6.029,13.2963,4.59986,2469.947,2019-6-30T06:39:59Z
2019-06-30T04:42:45Z,42.805,6.029,13.2964,4.59990,2469.923,2019-6-30T06:43:02Z
2019-06-30T04:45:48Z,42.805,6.029,13.2968,4.60020,2469.96,2019-6-30T06:46:05Z
2019-06-30T04:48:51Z,42.805,6.029,13.2975,4.60003,2469.96,2019-6-30T06:49:08Z
2019-06-30T04:51:53Z,42.805,6.029,13.2972,4.60007,2469.937,2019-6-30T06:52:11Z
2019-06-30T04:54:56Z,42.805,6.029,13.2966,4.59996,2469.96,2019-6-30T06:55:14Z
2019-06-30T04:57:59Z,42.805,6.029,13.2970,4.60008,2469.96,2019-6-30T06:58:17Z
2019-06-30T05:01:02Z,42.805,6.029,13.2968,4.59995,2469.96,2019-6-30T07:01:20Z
2019-06-30T05:04:05Z,42.805,6.029,13.2964,4.59976,2469.923,2019-6-30T07:04:22Z
2019-06-30T05:07:08Z,42.805,6.029,13.2963,4.59986,2469.937,2019-6-30T07:07:25Z
2019-06-30T05:10:11Z,42.805,6.029,13.2971,4.59982,2469.923,2019-6-30T07:10:28Z
2019-06-30T05:13:14Z,42.805,6.029,13.2968,4.59987,2469.914,2019-6-30T07:13:31Z
2019-06-30T05:16:17Z,42.805,6.029,13.2969,4.59998,2469.96,2019-6-30T07:16:34Z
2019-06-30T05:19:20Z,42.805,6.029,13.2964,4.60000,2469.923,2019-6-30T07:19:37Z
2019-06-30T05:22:23Z,42.805,6.029,13.2968,4.59999,2469.96,2019-6-30T07:22:40Z
2019-06-30T05:25:26Z,42.805,6.029,13.2964,4.60000,2469.96,2019-6-30T07:25:43Z
2019-06-30T05:28:29Z,42.805,6.029,13.2971,4.59998,2469.937,2019-6-30T07:28:46Z
2019-06-30T05:31:32Z,42.805,6.029,13.2964,4.59986,2469.947,2019-6-30T07:31:49Z
2019-06-30T17:08:08Z,42.805,6.029,13.2953,4.59958,2469.853,2019-6-30T19:08:25Z
2019-06-30T17:11:11Z,42.805,6.029,13.2956,4.59961,2469.853,2019-6-30T19:11:28Z
2019-06-30T17:14:14Z,42.805,6.029,13.2958,4.59962,2469.844,2019-6-30T19:14:31Z
2019-06-30T17:17:17Z,42.805,6.029,13.2958,4.59967,2469.853,2019-6-30T19:17:34Z
2019-06-30T17:20:20Z,42.805,6.029,13.2958,4.59966,2469.844,2019-6-30T19:20:37Z
2019-06-30T17:23:22Z,42.805,6.029,13.2957,4.59964,2469.844,2019-6-30T19:23:40Z
2019-06-30T17:26:25Z,42.805,6.029,13.2961,4.59970,2469.83,2019-6-30T19:26:43Z
2019-06-30T17:29:28Z,42.805,6.029,13.2959,4.59983,2469.853,2019-6-30T19:29:46Z
2019-06-30T17:32:31Z,42.805,6.029,13.2964,4.59969,2469.83,2019-6-30T19:32:49Z
2019-06-30T17:35:34Z,42.805,6.029,13.2958,4.59968,2469.821,2019-6-30T19:35:52Z
2019-06-30T17:38:37Z,42.805,6.029,13.2956,4.59981,2469.853,2019-6-30T19:38:54Z
2019-06-30T17:41:40Z,42.805,6.029,13.2961,4.59973,2469.821,2019-6-30T19:41:57Z
2019-06-30T17:44:43Z,42.805,6.029,13.2961,4.59982,2469.867,2019-6-30T19:45:00Z
2019-06-30T17:47:46Z,42.805,6.029,13.2961,4.59977,2469.844,2019-6-30T19:48:03Z
2019-06-30T17:50:49Z,42.805,6.029,13.2960,4.59979,2469.853,2019-6-30T19:51:06Z
2019-06-30T17:53:52Z,42.805,6.029,13.2959,4.59977,2469.821,2019-6-30T19:54:09Z
2019-06-30T17:56:55Z,42.805,6.029,13.2963,4.59970,2469.821,2019-6-30T19:57:12Z
2019-06-30T17:59:58Z,42.805,6.029,13.2961,4.59970,2469.853,2019-6-30T20:00:15Z
2019-06-30T18:03:01Z,42.805,6.029,13.2964,4.59969,2469.853,2019-6-30T20:03:18Z
2019-06-30T18:06:04Z,42.805,6.029,13.2958,4.59968,2469.867,2019-6-30T20:06:21Z
2019-06-30T18:09:07Z,42.805,6.029,13.2964,4.59972,2469.853,2019-6-30T20:09:24Z
2019-06-30T18:12:10Z,42.805,6.029,13.2961,4.59970,2469.844,2019-6-30T20:12:27Z
2019-06-30T18:15:13Z,42.805,6.029,13.2964,4.59972,2469.853,2019-6-30T20:15:30Z
2019-06-30T18:18:16Z,42.805,6.029,13.2958,4.59981,2469.844,2019-6-30T20:18:33Z
